Location: Ravensburg
(47.7866°N, 9.6124°E)
Time: 10:04:43
(UTC+02:00)

METEOR M2 - Pass Details

Date: 16 March 2026
Orbit: 817 x 824 km, 98.5° (Epoch: 18 April)

Event Time Altitude Azimuth Distance (km) Brightness Sun altitude
Rises 03:39:02 0° 25° (NNE) 3,372 ? -28.6°
Reaches altitude 10° 03:41:55 10° 40° (NE) 2,434 ? -28.2°
Maximum altitude 03:46:06 23° 91° (E) 1,700 ? -27.6°
Drops below altitude 10° 03:50:17 10° 143° (SE) 2,419 ? -27.0°
Sets 03:53:07 0° 158° (SSE) 3,345 ? -26.6°
